Weather History for Kars, Turkey

Change the Weather History Date:

Friday, July 5, 2013

  Actual Average Record
Temperature  
Mean Temperature 61 °F -  
Max Temperature 74 °F 77 °F - ()
Min Temperature 48 °F 49 °F - ()
Degree Days  
Heating Degree Days 4    
Growing Degree Days 11 (Base 50)    
Moisture  
Dew Point 52 °F    
Average Humidity 76    
Maximum Humidity 100    
Minimum Humidity 31    
Precipitation  
Precipitation 0.28 in 0.06 in - ()
Sea Level Pressure  
Sea Level Pressure 30.06 in    
Wind  
Wind Speed 6 mph ()    
Max Wind Speed 21 mph    
Max Gust Speed -    
Visibility 6.0 miles    
Events Rain , Thunderstorm    
T = Trace of Precipitation, MM = Missing Value Source: Averaged Metar Reports

Daily Weather History Graph

Daily Weather History Graph

Search for Another Location

Airport:

Trip Planner

Search our weather history database for the weather conditions in past years. The results will help you decide how hot, cold, wet, or windy it might be!

Date:

Astronomy

Jul. 05, 2013 Rise Set
Actual Time 4:42 AM EEST 7:41 PM EEST
Civil Twilight 4:09 AM EEST 8:14 PM EEST
Nautical Twilight 3:28 AM EEST 8:55 PM EEST
Astronomical Twilight 2:39 AM EEST 9:44 PM EEST
Moon 2:26 AM EEST (7/5) 5:17 PM EEST (7/5)
Length of Visible Light 16h 04m
Length of Day
14h 58m
Waning Crescent, 8% of the Moon is Illuminated
Jul 5
Waning Crescent
Jul 8
New
Jul 16
First Quarter
Jul 22
Full
Jul 29
Last Quarter

Hourly Weather History & Observations

Time (EEST) Temp. Dew Point Humidity Pressure Visibility Wind Dir Wind Speed Gust Speed Precip Events Conditions
12:50 AM 53.6 °F 51.8 °F 94% 30.06 in 6.2 mi Calm Calm - N/A   Scattered Clouds
1:50 AM 51.8 °F 51.8 °F 100% 30.06 in 6.2 mi East 5.8 mph - N/A   Scattered Clouds
3:00 AM 52 °F 51 °F 93%  in 6 mi ENE 6.9 mph - -   Partly Cloudy
3:50 AM 48.2 °F 48.2 °F 100% 30.06 in 6.2 mi Variable 1.2 mph - N/A   Scattered Clouds
4:50 AM 48.2 °F 48.2 °F 100% 30.06 in 6.2 mi Variable 3.5 mph - N/A   Scattered Clouds
5:50 AM 50.0 °F 50.0 °F 100% 30.09 in 6.2 mi Variable 1.2 mph - N/A   Scattered Clouds
6:50 AM 55.4 °F 50.0 °F 82% 30.09 in 6.2 mi Calm Calm - N/A   Scattered Clouds
7:50 AM 59.0 °F 53.6 °F 82% 30.09 in 6.2 mi NNE 5.8 mph - N/A   Scattered Clouds
8:50 AM 62.6 °F 51.8 °F 68% 30.06 in 6.2 mi NE 11.5 mph - N/A   Scattered Clouds
9:00 AM 63 °F 52 °F 57%  in 6 mi NE 11.5 mph - -   Partly Cloudy
9:50 AM 64.4 °F 51.8 °F 64% 30.06 in 6.2 mi ENE 10.4 mph - N/A   Mostly Cloudy
10:50 AM 68.0 °F 48.2 °F 49% 30.06 in 6.2 mi East 8.1 mph - N/A   Mostly Cloudy
11:50 AM 68.0 °F 50.0 °F 52% 30.06 in 6.2 mi East 5.8 mph - N/A   Mostly Cloudy
12:50 PM 71.6 °F 51.8 °F 50% 30.04 in 6.2 mi SSE 6.9 mph - N/A   Mostly Cloudy
1:50 PM 71.6 °F 48.2 °F 43% 30.04 in 6.2 mi East 5.8 mph - N/A   Scattered Clouds
2:50 PM 73.4 °F 50.0 °F 44% 30.04 in 6.2 mi ESE 6.9 mph - N/A   Scattered Clouds
3:00 PM 73 °F 49 °F 31%  in 6 mi ESE 6.9 mph - -   Partly Cloudy
3:50 PM 73.4 °F 50.0 °F 44% 30.01 in 6.2 mi ESE 11.5 mph - N/A   Scattered Clouds
4:50 PM 71.6 °F 48.2 °F 43% 30.01 in 6.2 mi SSW 4.6 mph - N/A   Mostly Cloudy
5:50 PM 62.6 °F 51.8 °F 68% 30.04 in 6.2 mi ENE 20.7 mph - N/A   Scattered Clouds
6:01 PM 62.6 °F 50.0 °F 63% 30.04 in 6.2 mi East 16.1 mph - N/A Thunderstorm Thunderstorm
6:03 PM 62.6 °F 51.8 °F 68% 30.06 in 6.2 mi East 15.0 mph - N/A Rain , Thunderstorm Light Thunderstorms and Rain
6:12 PM 59.0 °F 53.6 °F 82% 30.09 in 3.1 mi WSW 15.0 mph - N/A Rain , Thunderstorm Thunderstorms and Rain
6:35 PM 57.2 °F 55.4 °F 94% 30.09 in 5.0 mi NW 8.1 mph - N/A Rain , Thunderstorm Light Thunderstorms and Rain
6:50 PM 57.2 °F 55.4 °F 94% 30.06 in 6.2 mi NE 10.4 mph - N/A Rain , Thunderstorm Light Thunderstorms and Rain
7:12 PM 59.0 °F 55.4 °F 88% 30.06 in 6.2 mi ENE 17.3 mph - N/A   Mostly Cloudy
7:50 PM 57.2 °F 53.6 °F 88% 30.06 in 6.2 mi NNE 10.4 mph - N/A   Mostly Cloudy
8:50 PM 57.2 °F 53.6 °F 88% 30.09 in 6.2 mi ENE 13.8 mph - N/A Rain , Thunderstorm Light Thunderstorms and Rain
9:00 PM 56 °F 53 °F 84%  in 6 mi ENE 13.8 mph - - Rain , Thunderstorm Thunderstorms and Rain
9:11 PM 55.4 °F 53.6 °F 94% 30.09 in 6.2 mi ENE 8.1 mph - N/A   Mostly Cloudy
9:50 PM 55.4 °F 55.4 °F 100% 30.09 in 6.2 mi NNE 11.5 mph - N/A   Scattered Clouds
10:50 PM 53.6 °F 53.6 °F 100% 30.09 in 6.2 mi NE 3.5 mph - N/A   Scattered Clouds
11:50 PM 55.4 °F 53.6 °F 94% 30.09 in 6.2 mi NE 3.5 mph - N/A   Scattered Clouds